#timestamp,LO_Frequency,Hit,StdDev 
1516291215.2,286047001.6,N
1516291235.0,286047001.9,N
1516291235.9,286047001.9,N
1516291255.8,286047001.9,N
1516291275.6,286047001.6,N
1516291295.4,286047001.6,N
1516291315.2,286047001.5,N
1516291335.1,286047001.5,N
1516291336.0,286047001.5,N
1516291355.8,286047001.5,N
1516291375.6,286047001.7,N
1516291395.5,286047001.7,N
1516291415.3,286047001.7,N
1516291435.1,286047001.4,N
1516291455.9,286047001.4,N
1516291475.7,286047001.3,N
1516291495.5,286047001.4,N
1516291515.4,286047001.3,N
1516291535.2,286047004.4,Y
1516291555.0,286047002.4,P
1516291555.9,286047002.4,P
1516291575.8,286047002.7,P
1516291595.6,286047002.4,Y
1516291615.4,286046998.7,P
1516291635.3,286046998.3,N
1516291655.1,286047014.8,P
1516291656.0,286047014.8,N
1516291675.8,286047014.7,N
1516291695.7,286047014.8,N
1516291715.5,286047014.7,N
1516291735.3,286047014.9,N
1516291755.2,286047015.0,N
1516291775.9,286047015.3,N
1516291795.7,286046998.7,N
1516291815.5,286046998.8,N
1516291835.4,286046998.9,N
1516291855.2,286046998.8,N
1516291875.0,286046998.4,N
1516291875.9,286046998.4,N
1516291895.8,286046998.9,N
1516291915.6,286046998.3,N
1516291935.4,286046998.3,N
1516291955.3,286046998.8,N
1516291975.1,286046998.8,N
1516291976.0,286046998.8,N
1516291995.8,286046998.8,N
1516292015.7,286046998.8,N
1516292035.5,286046998.8,N
1516292055.3,286046999.3,N
1516292075.2,286046999.1,N
1516292095.9,286046999.3,N
1516292115.7,286046999.2,N
1516292135.6,286047159.9,Y
1516292155.4,286047157.0,P
1516292175.2,286047156.9,N
1516292195.0,286047156.7,N
1516292196.0,286047156.7,N
1516292215.8,286047074.6,N
1516292235.6,286047074.6,N
1516292255.4,286047074.3,N
1516292275.3,286047074.3,N
1516292295.1,286047074.7,N
1516292315.8,286047074.6,N
1516292335.7,286047074.4,N
1516292355.5,286046979.3,N
1516292375.3,286046979.9,N
1516292395.2,286046974.1,N
1516292415.9,286046299.6,Y
1516292435.7,286046580.9,P
1516292455.6,286046581.0,N
1516292475.4,286046671.1,N
1516292495.2,286046671.3,N
1516292515.1,286046671.0,N
1516292516.0,286046671.0,N
1516292535.8,286046671.3,N
1516292555.6,286046671.4,N
1516292575.4,286046671.4,N
1516292595.3,286046671.3,N
1516292615.1,286046671.4,N
1516292635.8,286046638.9,Y
1516292655.7,286047666.6,P
1516292675.5,286047231.7,N
1516292695.3,286047232.2,N
1516292715.2,286047128.3,N
1516292735.9,286047232.0,N
1516292755.7,286047304.0,N
1516292775.6,286047123.1,N
1516292795.4,286047123.8,N
1516292815.2,286047120.5,N
1516292835.1,286047119.2,N
1516292836.0,286047119.2,N
1516292855.8,286047117.7,N
1516292875.6,286047232.0,N
1516292895.5,286047117.7,N
1516292915.3,286047116.3,N
1516292935.1,286047114.5,N
1516292955.8,286047232.6,N
1516292975.7,286047232.9,N
1516292995.5,286047109.8,N
1516293015.3,286047230.5,N
1516293035.2,286047230.7,N
1516293055.9,286047230.8,N
1516293075.7,286047230.4,N
1516293095.6,286047375.3,N
1516293115.4,286047373.4,N
1516293135.2,286047374.2,N
1516293155.1,286047368.5,N
1516293156.0,286047368.5,N
1516293175.8,286047230.5,N
1516293195.6,286047372.1,N
1516293215.4,286047231.3,N
1516293235.3,286047231.4,N
1516293255.1,286047231.5,N
1516293275.8,286047228.5,N
1516293295.7,286047231.6,N
1516293315.5,286047228.5,N
1516293335.3,286047228.5,N
1516293355.2,286047228.6,N
1516293375.9,286047228.7,N
1516293395.7,286047228.7,N
1516293415.6,286047228.8,N
1516293435.4,286047229.1,N
1516293455.2,286047229.3,Y
1516293475.1,286046986.5,P
1516293476.0,286046986.5,N
1516293495.8,286046986.4,N
1516293515.6,286046986.8,N
1516293535.5,286046984.1,N
1516293555.3,286046983.9,N
1516293575.1,286046983.9,N
1516293595.9,286046984.3,N
1516293615.7,286046984.3,N
1516293635.5,286046984.4,N
1516293655.3,286046984.6,N
1516293675.2,286046984.7,N
1516293695.0,286046985.1,N
1516293695.9,286046985.1,N
1516293715.7,286046985.2,N
1516293735.6,286046982.2,N
1516293755.4,286046985.2,N
1516293775.2,286046982.2,N
1516293795.1,286046982.4,N
1516293796.0,286046982.4,N
1516293815.8,286046982.7,N
1516293835.6,286046982.8,N
1516293855.5,286046983.3,N
1516293875.3,286046983.2,N
1516293895.1,286046983.6,N
1516293915.9,286046980.5,N
1516293935.7,286046981.0,N
1516293955.5,286046981.0,N
1516293975.3,286046980.7,N
1516293995.2,286046981.2,N
1516294015.0,286046981.7,Y
1516294015.9,286046981.7,P
1516294035.8,286046997.4,N
1516294055.6,286046997.7,N
1516294075.4,286046997.4,N
1516294095.2,286046997.4,N
1516294115.1,286046997.5,N
1516294116.0,286046997.5,N
1516294135.8,286046997.8,N
1516294155.6,286046997.8,N
1516294175.5,286046997.5,N
1516294195.3,286046997.8,N
1516294215.1,286046997.6,N
1516294235.9,286046997.9,N
1516294255.7,286046994.9,N
1516294275.5,286046994.9,N
1516294295.4,286046995.0,N
1516294315.2,286046995.1,N
1516294335.0,286046995.5,N
1516294335.9,286046995.5,N
1516294355.8,286046995.7,N
1516294375.6,286046996.1,N
1516294395.4,286046995.9,N
1516294415.2,286046996.2,N
1516294435.1,286046995.9,N
1516294436.0,286046995.9,N
1516294455.8,286046996.0,N
1516294475.6,286046996.3,N
1516294495.5,286046995.9,N
1516294515.3,286046996.3,N
1516294535.1,286046996.4,N
1516294555.9,286046993.3,N
1516294575.7,286046993.4,Y
1516294595.5,286046999.6,P
1516294615.4,286046999.5,N
1516294635.2,286046996.6,N
1516294655.0,286046996.6,N
1516294655.9,286046996.6,N
1516294675.8,286046996.9,N
1516294695.6,286046997.0,N
1516294715.4,286046996.8,N
1516294735.3,286046996.7,N
1516294755.1,286046997.2,N
1516294756.0,286046997.2,N
1516294775.8,286046997.4,N
1516294795.7,286046997.2,N
